This is the latest recevied weather packets stored in our database for station/object N4ASP-13. If no packets are shown the sender has not sent any weather packets the latest 10 day(s).
| Time | Temp. | Humidity | Pressure | Rain* | Wind** | Luminosity | Snow |
|---|---|---|---|---|---|---|---|
| 1778334684 | 16.67° C | 77% | 1011.8 hPa | 0 mm | - | 418 W/m² | - |
| 1778334624 | 16.67° C | 77% | 1011.8 hPa | 0 mm | - | 396 W/m² | - |
| 1778334564 | 16.67° C | 77% | 1011.8 hPa | 0 mm | - | 501 W/m² | - |
| 1778334503 | 16.67° C | 77% | 1011.7 hPa | 0 mm | - | 504 W/m² | - |
| 1778334445 | 16.67° C | 77% | 1011.8 hPa | 0 mm | - | 473 W/m² | - |
| 1778334384 | 16.67° C | 77% | 1011.8 hPa | 0 mm | - | 473 W/m² | - |
| 1778334323 | 16.67° C | 77% | 1011.8 hPa | 0 mm | - | 473 W/m² | - |
| 1778334263 | 16.67° C | 78% | 1011.7 hPa | 0 mm | - | 432 W/m² | - |
| 1778334203 | 16.67° C | 78% | 1011.8 hPa | 0 mm | - | 701 W/m² | - |
| 1778334143 | 16.67° C | 78% | 1011.7 hPa | 0 mm | - | 701 W/m² | - |
| 1778334085 | 16.67° C | 77% | 1011.8 hPa | 0 mm | - | 691 W/m² | - |
| 1778334023 | 16.67° C | 78% | 1011.8 hPa | 0 mm | - | 761 W/m² | - |
| 1778333964 | 16.67° C | 78% | 1011.8 hPa | 0 mm | - | 715 W/m² | - |
| 1778333904 | 16.67° C | 77% | 1011.8 hPa | 0 mm | - | 715 W/m² | - |
| 1778333844 | 16.67° C | 79% | 1011.8 hPa | 0 mm | - | 508 W/m² | - |
| 1778333783 | 16.67° C | 78% | 1011.7 hPa | 0 mm | - | 508 W/m² | - |
| 1778333725 | 16.67° C | 78% | 1011.7 hPa | 0 mm | - | 508 W/m² | - |
| 1778333665 | 16.67° C | 78% | 1011.8 hPa | 0 mm | - | 508 W/m² | - |
| 1778333604 | 16.67° C | 79% | 1012 hPa | 0 mm | - | 740 W/m² | - |
| 1778333543 | 16.67° C | 78% | 1012 hPa | 0 mm | - | 740 W/m² | - |
| 1778333483 | 16.67° C | 79% | 1012 hPa | 0 mm | - | 622 W/m² | - |
| 1778333424 | 16.67° C | 79% | 1012.1 hPa | 0 mm | - | 666 W/m² | - |
| 1778333364 | 16.11° C | 79% | 1012.1 hPa | 0 mm | - | 666 W/m² | - |
| 1778333305 | 16.11° C | 79% | 1012 hPa | 0 mm | - | 666 W/m² | - |
| 1778333239 | 16.11° C | 79% | 1012.1 hPa | 0 mm | - | 666 W/m² | - |
* Rain latest hour (hover to see other rain measurements)
** Current wind speed in m/s (hover to see current wind gust speed)